KAL134 ZHCC-RKSI

Flight info

Callsign KAL134
Flight time 1h 37m
Altitude 31100
Route OKTOX W56 VADMO W4 WXI W59 SUNOK W103 YQG W569 NOBUP W4 IKEKA/K0796S0890 A591 AGAVO/N0429F290 Y644 REBIT
Aircraft B738/M-SDE2FGHIM3RWXY/LB1

Departure

Time 2026-05-06 16:05
Airport Zhengzhou Xinzheng International Airport (ZHCC)

Arrival

Time 2026-05-06 17:42
Airport Incheon International Airport (RKSI)
Time Latitude Longitude Altitude Speed Heading
2026-05-06 15:36 34.53111 113.85011 497 ft 0 kts 292°
2026-05-06 15:50 34.53111 113.85012 496 ft 0 kts 292°
2026-05-06 15:53 34.53109 113.85017 496 ft 2 kts 292°
2026-05-06 15:53 34.53103 113.85033 496 ft 2 kts 292°
2026-05-06 15:53 34.53097 113.85051 496 ft 2 kts 302°
2026-05-06 15:53 34.53086 113.85062 496 ft 2 kts 342°
2026-05-06 15:54 34.53070 113.85063 496 ft 2 kts 16°
2026-05-06 15:54 34.53057 113.85055 495 ft 1 kts 25°
2026-05-06 15:54 34.53054 113.85054 495 ft 0 kts 22°
2026-05-06 15:57 34.53062 113.85059 495 ft 2 kts 22°
2026-05-06 15:57 34.53086 113.85070 496 ft 4 kts 22°
2026-05-06 15:57 34.53128 113.85091 497 ft 8 kts 22°
2026-05-06 15:57 34.53181 113.85117 498 ft 7 kts 22°
2026-05-06 15:58 34.53198 113.85125 498 ft 7 kts 22°
2026-05-06 15:58 34.53216 113.85133 498 ft 7 kts 21°
2026-05-06 15:58 34.53263 113.85156 497 ft 7 kts 21°
2026-05-06 15:58 34.53283 113.85201 497 ft 6 kts 102°
2026-05-06 15:59 34.53263 113.85260 497 ft 9 kts 112°
2026-05-06 15:59 34.53233 113.85349 493 ft 14 kts 112°
2026-05-06 15:59 34.53184 113.85491 486 ft 21 kts 112°
2026-05-06 15:59 34.53124 113.85670 482 ft 23 kts 112°
2026-05-06 16:00 34.53061 113.85854 481 ft 22 kts 112°
2026-05-06 16:00 34.53001 113.86029 481 ft 23 kts 112°
2026-05-06 16:00 34.52936 113.86220 481 ft 24 kts 112°
2026-05-06 16:00 34.52872 113.86411 482 ft 23 kts 112°
2026-05-06 16:01 34.52810 113.86592 482 ft 22 kts 112°
2026-05-06 16:01 34.52750 113.86766 483 ft 21 kts 112°
2026-05-06 16:01 34.52694 113.86932 482 ft 21 kts 112°
2026-05-06 16:01 34.52637 113.87099 482 ft 20 kts 112°
2026-05-06 16:02 34.52587 113.87246 486 ft 15 kts 112°
2026-05-06 16:02 34.52552 113.87347 489 ft 10 kts 112°
2026-05-06 16:02 34.52531 113.87412 493 ft 6 kts 112°
2026-05-06 16:02 34.52515 113.87457 496 ft 5 kts 112°
2026-05-06 16:03 34.52498 113.87511 498 ft 6 kts 102°
2026-05-06 16:03 34.52523 113.87566 496 ft 10 kts 29°
2026-05-06 16:03 34.52594 113.87603 493 ft 12 kts 22°
2026-05-06 16:03 34.52673 113.87643 490 ft 9 kts 22°
2026-05-06 16:04 34.52719 113.87660 488 ft 5 kts 344°
2026-05-06 16:04 34.52741 113.87620 488 ft 4 kts 292°
2026-05-06 16:04 34.52762 113.87560 485 ft 16 kts 292°
2026-05-06 16:04 34.52906 113.87138 473 ft 89 kts 292°
2026-05-06 16:05 34.53223 113.86207 477 ft 147 kts 292°
2026-05-06 16:05 34.53655 113.84913 693 ft 174 kts 296°
2026-05-06 16:05 34.54093 113.83634 1615 ft 158 kts 300°
2026-05-06 16:05 34.54496 113.82414 2237 ft 157 kts 301°
2026-05-06 16:06 34.54918 113.81162 2603 ft 164 kts 301°
2026-05-06 16:06 34.55360 113.79868 3004 ft 169 kts 303°
2026-05-06 16:06 34.55824 113.78541 3408 ft 174 kts 302°
2026-05-06 16:06 34.56303 113.77159 3786 ft 183 kts 302°
2026-05-06 16:07 34.56838 113.75657 4069 ft 199 kts 301°
2026-05-06 16:07 34.57395 113.74071 4428 ft 211 kts 300°
2026-05-06 16:07 34.58122 113.72462 4692 ft 222 kts 320°
2026-05-06 16:07 34.59462 113.71600 5041 ft 225 kts 355°
2026-05-06 16:08 34.61037 113.71967 5341 ft 240 kts 27°
2026-05-06 16:08 34.62441 113.73160 5733 ft 253 kts 34°
2026-05-06 16:08 34.63897 113.74410 6297 ft 257 kts 30°
2026-05-06 16:08 34.65432 113.75535 6818 ft 264 kts 27°
2026-05-06 16:09 34.67081 113.76640 7377 ft 270 kts 26°
2026-05-06 16:09 34.68754 113.77733 7947 ft 276 kts 26°
2026-05-06 16:09 34.70461 113.78852 8520 ft 282 kts 26°
2026-05-06 16:09 34.72203 113.79999 9090 ft 289 kts 26°
2026-05-06 16:10 34.73976 113.81173 9649 ft 296 kts 26°
2026-05-06 16:10 34.75804 113.82388 10262 ft 302 kts 26°
2026-05-06 16:10 34.77696 113.83647 10605 ft 318 kts 26°
2026-05-06 16:10 34.79710 113.84990 10956 ft 333 kts 26°
2026-05-06 16:11 34.81780 113.86370 11296 ft 348 kts 26°
2026-05-06 16:11 34.83951 113.87816 11593 ft 364 kts 26°
2026-05-06 16:11 34.86243 113.89343 12010 ft 376 kts 26°
2026-05-06 16:11 34.88537 113.90874 12544 ft 383 kts 27°
2026-05-06 16:12 34.90891 113.92448 13141 ft 389 kts 26°
2026-05-06 16:12 34.93281 113.94046 13814 ft 392 kts 26°
2026-05-06 16:12 34.95686 113.95655 14483 ft 396 kts 26°
2026-05-06 16:12 34.98116 113.97282 15119 ft 400 kts 26°
2026-05-06 16:13 35.00579 113.98930 15730 ft 405 kts 26°
2026-05-06 16:13 35.03055 114.00589 16355 ft 409 kts 25°
2026-05-06 16:13 35.05583 114.02284 16927 ft 414 kts 25°
2026-05-06 16:13 35.08094 114.03968 17502 ft 418 kts 25°
2026-05-06 16:14 35.10652 114.05685 18058 ft 422 kts 25°
2026-05-06 16:14 35.13247 114.07428 18582 ft 427 kts 25°
2026-05-06 16:14 35.15875 114.09193 19151 ft 430 kts 25°
2026-05-06 16:14 35.18521 114.10971 19636 ft 436 kts 25°
2026-05-06 16:15 35.21196 114.12769 20208 ft 439 kts 24°
2026-05-06 16:15 35.23877 114.14573 20676 ft 444 kts 24°
2026-05-06 16:15 35.26577 114.16393 21274 ft 445 kts 24°
2026-05-06 16:15 35.29311 114.18236 21692 ft 451 kts 24°
2026-05-06 16:16 35.32068 114.20097 22308 ft 451 kts 24°
2026-05-06 16:16 35.34836 114.21967 22684 ft 457 kts 24°
2026-05-06 16:16 35.37631 114.23856 23204 ft 459 kts 24°
2026-05-06 16:16 35.40434 114.25754 23634 ft 464 kts 24°
2026-05-06 16:17 35.43276 114.27679 24160 ft 465 kts 23°
2026-05-06 16:17 35.46115 114.29604 24493 ft 472 kts 23°
2026-05-06 16:17 35.48996 114.31561 25003 ft 474 kts 23°
2026-05-06 16:17 35.51855 114.33506 25466 ft 476 kts 23°
2026-05-06 16:18 35.54767 114.35485 25805 ft 480 kts 23°
2026-05-06 16:18 35.57721 114.37495 26182 ft 483 kts 22°
2026-05-06 16:18 35.60677 114.39506 26533 ft 485 kts 22°
2026-05-06 16:18 35.63612 114.41509 27050 ft 484 kts 22°
2026-05-06 16:19 35.66559 114.43524 27615 ft 481 kts 22°
2026-05-06 16:19 35.69484 114.45526 28051 ft 482 kts 22°
2026-05-06 16:19 35.72420 114.47536 28518 ft 481 kts 21°
2026-05-06 16:19 35.75333 114.49532 29018 ft 479 kts 21°
2026-05-06 16:20 35.78244 114.51526 29465 ft 478 kts 21°
2026-05-06 16:20 35.81174 114.53533 29886 ft 479 kts 21°
2026-05-06 16:20 35.84085 114.55528 30311 ft 478 kts 21°
2026-05-06 16:20 35.87000 114.57527 30685 ft 479 kts 21°
2026-05-06 16:21 35.89921 114.59528 30840 ft 485 kts 21°
2026-05-06 16:21 35.92924 114.61582 30926 ft 492 kts 21°
2026-05-06 16:21 35.95913 114.63627 31092 ft 496 kts 21°
2026-05-06 16:21 35.98967 114.65725 31383 ft 498 kts 22°
2026-05-06 16:22 36.02022 114.67831 31747 ft 498 kts 21°
2026-05-06 16:22 36.05066 114.69936 32138 ft 497 kts 21°
2026-05-06 16:22 36.08074 114.72019 32509 ft 496 kts 21°
2026-05-06 16:22 36.11098 114.74116 32879 ft 494 kts 21°
2026-05-06 16:23 36.14084 114.76188 33236 ft 493 kts 21°
2026-05-06 16:23 36.17075 114.78263 33566 ft 493 kts 21°
2026-05-06 16:23 36.20085 114.80351 33910 ft 492 kts 21°
2026-05-06 16:23 36.23069 114.82419 34183 ft 493 kts 21°
2026-05-06 16:24 36.26086 114.84512 34528 ft 492 kts 21°
2026-05-06 16:24 36.29048 114.86584 34860 ft 492 kts 22°
2026-05-06 16:24 36.31990 114.89002 35051 ft 503 kts 31°
2026-05-06 16:24 36.34589 114.92097 35044 ft 516 kts 45°
2026-05-06 16:25 36.36611 114.95815 35045 ft 524 kts 58°
2026-05-06 16:25 36.38065 115.00005 35048 ft 528 kts 68°
2026-05-06 16:25 36.40250 115.08810 35037 ft 530 kts 72°
2026-05-06 16:26 36.42110 115.17680 35040 ft 532 kts 73°
2026-05-06 16:26 36.44433 115.26466 35036 ft 529 kts 65°
2026-05-06 16:27 36.47310 115.34832 35034 ft 526 kts 62°
2026-05-06 16:27 36.50373 115.43131 35039 ft 528 kts 61°
2026-05-06 16:28 36.53413 115.51408 35038 ft 529 kts 61°
2026-05-06 16:28 36.56420 115.59766 35038 ft 528 kts 62°
2026-05-06 16:29 36.59428 115.68246 35037 ft 530 kts 63°
2026-05-06 16:29 36.62397 115.76681 35034 ft 531 kts 63°
2026-05-06 16:30 36.64851 115.83680 35033 ft 532 kts 63°
2026-05-06 16:30 36.68321 115.93612 35034 ft 534 kts 63°
2026-05-06 16:31 36.71294 116.02145 35036 ft 533 kts 63°
2026-05-06 16:31 36.74242 116.10618 35039 ft 534 kts 62°
2026-05-06 16:32 36.77203 116.19173 35035 ft 533 kts 64°
2026-05-06 16:32 36.79578 116.27969 35033 ft 540 kts 75°
2026-05-06 16:33 36.80733 116.37256 35040 ft 542 kts 84°
2026-05-06 16:34 36.81290 116.51305 35043 ft 541 kts 89°
2026-05-06 16:34 36.81494 116.60789 35037 ft 540 kts 89°
2026-05-06 16:35 36.81721 116.70210 35036 ft 539 kts 89°
2026-05-06 16:35 36.81984 116.79594 35036 ft 539 kts 89°
2026-05-06 16:36 36.82264 116.89011 35036 ft 541 kts 88°
2026-05-06 16:36 36.82547 116.98377 35042 ft 538 kts 89°
2026-05-06 16:37 36.83182 117.07733 35049 ft 540 kts 77°
2026-05-06 16:37 36.84280 117.12230 35050 ft 535 kts 62°
2026-05-06 16:37 36.86057 117.16196 35055 ft 524 kts 49°
2026-05-06 16:37 36.88402 117.19693 35055 ft 517 kts 38°
2026-05-06 16:38 36.91024 117.22769 35049 ft 510 kts 32°
2026-05-06 16:38 36.93827 117.25304 35047 ft 494 kts 20°
2026-05-06 16:38 36.96927 117.27108 35066 ft 485 kts 10°
2026-05-06 16:39 37.03313 117.29740 35060 ft 475 kts
2026-05-06 16:39 37.09663 117.31993 35057 ft 473 kts
2026-05-06 16:40 37.16042 117.34277 35057 ft 475 kts
2026-05-06 16:40 37.22436 117.36652 35054 ft 473 kts
2026-05-06 16:41 37.28691 117.39861 35055 ft 503 kts 22°
2026-05-06 16:41 37.31515 117.42603 35053 ft 518 kts 37°
2026-05-06 16:41 37.33879 117.46143 35061 ft 530 kts 50°
2026-05-06 16:42 37.37118 117.54577 35062 ft 544 kts 68°
2026-05-06 16:42 37.38881 117.63940 35061 ft 547 kts 79°
2026-05-06 16:43 37.39971 117.73357 35059 ft 547 kts 82°
2026-05-06 16:43 37.40980 117.82906 35055 ft 547 kts 82°
2026-05-06 16:44 37.42043 117.92339 35058 ft 549 kts 81°
2026-05-06 16:44 37.43185 118.01831 35058 ft 548 kts 81°
2026-05-06 16:45 37.44364 118.11309 35054 ft 546 kts 79°
2026-05-06 16:45 37.45554 118.20785 35047 ft 547 kts 80°
2026-05-06 16:46 37.46745 118.30212 35046 ft 546 kts 79°
2026-05-06 16:46 37.47958 118.39681 35044 ft 548 kts 80°
2026-05-06 16:47 37.49162 118.49152 35040 ft 545 kts 79°
2026-05-06 16:47 37.50355 118.58607 35043 ft 546 kts 79°
2026-05-06 16:48 37.51534 118.68046 35043 ft 547 kts 80°
2026-05-06 16:48 37.52702 118.77522 35044 ft 546 kts 81°
2026-05-06 16:49 37.53702 118.87054 35040 ft 546 kts 84°
2026-05-06 16:49 37.54384 118.96604 35043 ft 545 kts 85°
2026-05-06 16:50 37.54989 119.06181 35033 ft 546 kts 85°
2026-05-06 16:50 37.55618 119.15774 35026 ft 544 kts 85°
2026-05-06 16:51 37.56267 119.25249 35016 ft 544 kts 85°
2026-05-06 16:51 37.56939 119.34776 35019 ft 546 kts 85°
2026-05-06 16:52 37.57618 119.44344 35011 ft 545 kts 85°
2026-05-06 16:52 37.58288 119.53860 35012 ft 546 kts 85°
2026-05-06 16:53 37.58935 119.63414 35013 ft 545 kts 85°
2026-05-06 16:53 37.59581 119.72902 35015 ft 545 kts 85°
2026-05-06 16:54 37.60295 119.82485 35008 ft 545 kts 84°
2026-05-06 16:54 37.60787 119.88864 35007 ft 548 kts 84°
2026-05-06 16:55 37.62410 120.10584 34997 ft 548 kts 84°
2026-05-06 16:56 37.63095 120.20084 34988 ft 546 kts 85°
2026-05-06 16:56 37.63776 120.29618 34985 ft 546 kts 85°
2026-05-06 16:57 37.64449 120.39209 34985 ft 549 kts 85°
2026-05-06 16:57 37.64953 120.48772 34984 ft 546 kts 90°
2026-05-06 16:58 37.64028 120.58207 34982 ft 538 kts 110°
2026-05-06 16:58 37.61624 120.67063 34983 ft 530 kts 118°
2026-05-06 16:59 37.58773 120.75674 34975 ft 528 kts 120°
2026-05-06 16:59 37.55916 120.84169 34977 ft 525 kts 119°
2026-05-06 17:00 37.53140 120.92713 34986 ft 530 kts 118°
2026-05-06 17:00 37.50384 121.01344 34983 ft 525 kts 118°
2026-05-06 17:01 37.47666 121.09895 34984 ft 526 kts 118°
2026-05-06 17:01 37.44920 121.18530 34978 ft 526 kts 117°
2026-05-06 17:02 37.42491 121.27257 34972 ft 527 kts 112°
2026-05-06 17:02 37.40354 121.36129 34972 ft 529 kts 111°
2026-05-06 17:03 37.38240 121.45003 34974 ft 526 kts 111°
2026-05-06 17:03 37.36080 121.53803 34975 ft 524 kts 112°
2026-05-06 17:04 37.33892 121.62499 34977 ft 525 kts 112°
2026-05-06 17:04 37.31661 121.71233 34983 ft 520 kts 113°
2026-05-06 17:05 37.29438 121.79900 34988 ft 521 kts 113°
2026-05-06 17:05 37.27218 121.88528 34981 ft 522 kts 113°
2026-05-06 17:06 37.24978 121.97219 34979 ft 519 kts 113°
2026-05-06 17:06 37.22736 122.05885 34979 ft 518 kts 113°
2026-05-06 17:07 37.20445 122.14452 34978 ft 516 kts 117°
2026-05-06 17:07 37.18912 122.18481 34983 ft 505 kts 127°
2026-05-06 17:07 37.16960 122.22072 34959 ft 498 kts 136°
2026-05-06 17:07 37.14666 122.25298 34657 ft 483 kts 143°
2026-05-06 17:08 37.12241 122.28108 34359 ft 468 kts 148°
2026-05-06 17:08 37.09748 122.30682 34061 ft 461 kts 150°
2026-05-06 17:08 37.07308 122.33356 33763 ft 471 kts 141°
2026-05-06 17:08 37.05271 122.36637 33470 ft 486 kts 127°
2026-05-06 17:09 37.03768 122.40541 33199 ft 498 kts 117°
2026-05-06 17:09 37.02523 122.44629 32933 ft 505 kts 113°
2026-05-06 17:09 37.01628 122.48907 32656 ft 509 kts 101°
2026-05-06 17:09 37.01329 122.53348 32398 ft 510 kts 94°
2026-05-06 17:10 37.01131 122.57741 32134 ft 511 kts 97°
2026-05-06 17:10 37.00623 122.62189 31869 ft 511 kts 103°
2026-05-06 17:10 36.99855 122.66524 31606 ft 510 kts 108°
2026-05-06 17:10 36.98928 122.70778 31344 ft 509 kts 110°
2026-05-06 17:11 36.97909 122.75015 31082 ft 509 kts 111°
2026-05-06 17:11 36.95799 122.83416 30985 ft 510 kts 111°
2026-05-06 17:12 36.93688 122.91851 30985 ft 510 kts 111°
2026-05-06 17:12 36.91616 123.00302 30767 ft 507 kts 110°
2026-05-06 17:12 36.90597 123.04515 30501 ft 500 kts 110°
2026-05-06 17:13 36.89604 123.08637 30238 ft 496 kts 110°
2026-05-06 17:13 36.88614 123.12752 29979 ft 498 kts 110°
2026-05-06 17:13 36.87602 123.16938 29718 ft 504 kts 109°
2026-05-06 17:13 36.86601 123.21080 29456 ft 503 kts 110°
2026-05-06 17:14 36.85636 123.25273 29194 ft 502 kts 106°
2026-05-06 17:14 36.85017 123.29594 28988 ft 503 kts 96°
2026-05-06 17:14 36.85056 123.33931 28987 ft 504 kts 83°
2026-05-06 17:14 36.85768 123.38193 28989 ft 507 kts 71°
2026-05-06 17:15 36.87000 123.42326 28985 ft 505 kts 63°
2026-05-06 17:15 36.90351 123.49996 28984 ft 501 kts 53°
2026-05-06 17:16 36.94194 123.57197 28989 ft 498 kts 51°
2026-05-06 17:16 36.98127 123.64372 28987 ft 500 kts 52°
2026-05-06 17:17 37.01988 123.71575 28981 ft 501 kts 54°
2026-05-06 17:17 37.05826 123.78891 28885 ft 501 kts 54°
2026-05-06 17:18 37.09591 123.86156 28882 ft 501 kts 54°
2026-05-06 17:18 37.13399 123.93555 28890 ft 502 kts 55°
2026-05-06 17:19 37.16318 124.01492 28895 ft 507 kts 75°
2026-05-06 17:19 37.17091 124.07264 28907 ft 504 kts 85°
2026-05-06 17:20 37.17627 124.18974 28902 ft 503 kts 90°
2026-05-06 17:20 37.17839 124.27660 28389 ft 497 kts 90°
2026-05-06 17:20 37.17923 124.31959 27866 ft 494 kts 90°
2026-05-06 17:21 37.17997 124.36215 27342 ft 491 kts 91°
2026-05-06 17:21 37.18072 124.40499 26809 ft 488 kts 90°
2026-05-06 17:21 37.18150 124.44718 26282 ft 485 kts 90°
2026-05-06 17:21 37.18231 124.48931 25758 ft 481 kts 90°
2026-05-06 17:22 37.18313 124.53052 25259 ft 477 kts 90°
2026-05-06 17:22 37.18399 124.57221 24745 ft 474 kts 90°
2026-05-06 17:22 37.18486 124.61337 24233 ft 470 kts 90°
2026-05-06 17:22 37.18570 124.65366 23757 ft 466 kts 91°
2026-05-06 17:23 37.18655 124.69404 23265 ft 462 kts 91°
2026-05-06 17:23 37.18739 124.73422 22773 ft 459 kts 91°
2026-05-06 17:23 37.18822 124.77415 22277 ft 455 kts 91°
2026-05-06 17:23 37.18904 124.81385 21775 ft 451 kts 91°
2026-05-06 17:24 37.18984 124.85302 21271 ft 448 kts 90°
2026-05-06 17:24 37.19062 124.89176 20773 ft 444 kts 91°
2026-05-06 17:24 37.19139 124.92994 20300 ft 440 kts 91°
2026-05-06 17:24 37.19213 124.96825 19879 ft 434 kts 90°
2026-05-06 17:25 37.19286 125.00568 19399 ft 430 kts 91°
2026-05-06 17:25 37.19356 125.04269 18896 ft 427 kts 91°
2026-05-06 17:25 37.19424 125.07983 18358 ft 424 kts 91°
2026-05-06 17:25 37.19490 125.11674 17823 ft 421 kts 90°
2026-05-06 17:26 37.19554 125.15297 17319 ft 418 kts 90°
2026-05-06 17:26 37.19616 125.18925 16781 ft 415 kts 90°
2026-05-06 17:26 37.19678 125.22563 16255 ft 412 kts 90°
2026-05-06 17:26 37.19737 125.26089 15738 ft 409 kts 90°
2026-05-06 17:27 37.19796 125.29630 15192 ft 404 kts 90°
2026-05-06 17:27 37.19852 125.33106 14702 ft 393 kts 90°
2026-05-06 17:27 37.19907 125.36488 14211 ft 382 kts 89°
2026-05-06 17:27 37.19959 125.39760 13754 ft 371 kts 89°
2026-05-06 17:28 37.20010 125.42953 13298 ft 362 kts 89°
2026-05-06 17:28 37.20077 125.46074 12838 ft 355 kts 86°
2026-05-06 17:28 37.20436 125.49088 12418 ft 349 kts 73°
2026-05-06 17:28 37.21421 125.51844 11957 ft 345 kts 57°
2026-05-06 17:29 37.22721 125.54336 11489 ft 342 kts 53°
2026-05-06 17:29 37.24111 125.56765 11033 ft 340 kts 52°
2026-05-06 17:29 37.25489 125.59176 10586 ft 338 kts 52°
2026-05-06 17:29 37.26817 125.61581 10246 ft 333 kts 53°
2026-05-06 17:30 37.28074 125.63934 10103 ft 321 kts 54°
2026-05-06 17:30 37.29283 125.66247 10003 ft 308 kts 54°
2026-05-06 17:30 37.30442 125.68478 9706 ft 303 kts 55°
2026-05-06 17:30 37.31594 125.70697 9300 ft 303 kts 55°
2026-05-06 17:31 37.32750 125.72921 8929 ft 301 kts 55°
2026-05-06 17:31 37.33889 125.75114 8570 ft 299 kts 55°
2026-05-06 17:31 37.35033 125.77317 8203 ft 297 kts 56°
2026-05-06 17:31 37.36162 125.79493 7836 ft 296 kts 56°
2026-05-06 17:32 37.37272 125.81634 7484 ft 294 kts 56°
2026-05-06 17:32 37.38389 125.83789 7121 ft 293 kts 56°
2026-05-06 17:32 37.39505 125.85944 6770 ft 291 kts 56°
2026-05-06 17:32 37.40593 125.88049 6421 ft 290 kts 56°
2026-05-06 17:33 37.41694 125.90176 6069 ft 288 kts 57°
2026-05-06 17:33 37.42783 125.92283 5724 ft 287 kts 57°
2026-05-06 17:33 37.43861 125.94370 5380 ft 285 kts 57°
2026-05-06 17:33 37.44948 125.96477 5019 ft 284 kts 57°
2026-05-06 17:34 37.46028 125.98570 4669 ft 283 kts 58°
2026-05-06 17:34 37.47093 126.00634 4326 ft 282 kts 58°
2026-05-06 17:34 37.48163 126.02711 3982 ft 281 kts 58°
2026-05-06 17:34 37.49213 126.04752 3643 ft 280 kts 58°
2026-05-06 17:35 37.50279 126.06823 3296 ft 279 kts 59°
2026-05-06 17:35 37.51328 126.08863 2960 ft 278 kts 59°
2026-05-06 17:35 37.52378 126.10905 2622 ft 277 kts 58°
2026-05-06 17:36 37.54463 126.14964 2140 ft 267 kts 58°
2026-05-06 17:36 37.55452 126.16892 2066 ft 256 kts 59°
2026-05-06 17:36 37.56397 126.18739 1990 ft 245 kts 59°
2026-05-06 17:36 37.57317 126.20503 1945 ft 233 kts 57°
2026-05-06 17:37 37.58224 126.22116 1936 ft 220 kts 56°
2026-05-06 17:37 37.59104 126.23637 1955 ft 204 kts 56°
2026-05-06 17:37 37.59919 126.25057 1935 ft 195 kts 57°
2026-05-06 17:37 37.60655 126.26481 1936 ft 193 kts 68°
2026-05-06 17:38 37.60920 126.28087 1935 ft 184 kts 104°
2026-05-06 17:38 37.60406 126.29483 1942 ft 172 kts 139°
2026-05-06 17:38 37.59530 126.30496 1935 ft 168 kts 146°
2026-05-06 17:38 37.58618 126.31406 1936 ft 168 kts 149°
2026-05-06 17:39 37.57658 126.32285 1932 ft 167 kts 150°
2026-05-06 17:39 37.56706 126.33136 1937 ft 167 kts 150°
2026-05-06 17:39 37.55751 126.33995 1939 ft 168 kts 150°
2026-05-06 17:39 37.54814 126.34840 1896 ft 160 kts 150°
2026-05-06 17:40 37.53925 126.35628 1697 ft 153 kts 150°
2026-05-06 17:40 37.53076 126.36385 1422 ft 148 kts 150°
2026-05-06 17:40 37.52230 126.37138 1248 ft 148 kts 149°
2026-05-06 17:40 37.51393 126.37882 1045 ft 147 kts 149°
2026-05-06 17:41 37.50555 126.38634 850 ft 147 kts 148°
2026-05-06 17:41 37.49710 126.39384 647 ft 148 kts 147°
2026-05-06 17:41 37.48866 126.40139 449 ft 148 kts 146°
2026-05-06 17:41 37.48011 126.40900 251 ft 148 kts 145°
2026-05-06 17:42 37.47169 126.41647 62 ft 149 kts 145°
2026-05-06 17:42 37.46369 126.42359 28 ft 118 kts 144°
2026-05-06 17:42 37.45893 126.42783 28 ft 54 kts 144°
2026-05-06 17:42 37.45682 126.42973 28 ft 26 kts 144°
2026-05-06 17:43 37.45535 126.43102 28 ft 25 kts 144°
2026-05-06 17:43 37.45399 126.43225 28 ft 23 kts 142°
2026-05-06 17:43 37.45292 126.43359 28 ft 20 kts 126°
2026-05-06 17:43 37.45231 126.43500 28 ft 16 kts 113°
2026-05-06 17:44 37.45248 126.43592 28 ft 10 kts 19°
2026-05-06 17:44 37.45313 126.43567 28 ft 10 kts 323°
2026-05-06 17:44 37.45376 126.43510 28 ft 12 kts 324°
2026-05-06 17:44 37.45457 126.43438 28 ft 15 kts 324°
2026-05-06 17:45 37.45555 126.43350 28 ft 18 kts 324°
2026-05-06 17:45 37.45664 126.43254 28 ft 18 kts 324°
2026-05-06 17:45 37.45757 126.43174 28 ft 12 kts 336°
2026-05-06 17:45 37.45824 126.43209 28 ft 11 kts 52°
2026-05-06 17:46 37.45869 126.43288 28 ft 11 kts 54°
2026-05-06 17:46 37.45917 126.43373 28 ft 13 kts 54°
2026-05-06 17:46 37.45976 126.43478 28 ft 15 kts 54°
2026-05-06 17:46 37.46037 126.43584 28 ft 14 kts 54°
2026-05-06 17:47 37.46091 126.43681 28 ft 10 kts 54°
2026-05-06 17:47 37.46150 126.43720 28 ft 10 kts 344°
2026-05-06 17:47 37.46209 126.43672 28 ft 9 kts 324°
2026-05-06 17:47 37.46265 126.43623 28 ft 9 kts 324°
2026-05-06 17:48 37.46319 126.43575 28 ft 9 kts 324°
2026-05-06 17:48 37.46371 126.43529 28 ft 8 kts 324°
2026-05-06 17:48 37.46384 126.43476 28 ft 6 kts 236°
2026-05-06 17:48 37.46362 126.43433 28 ft 5 kts 237°
2026-05-06 17:49 37.46352 126.43414 28 ft 0 kts 237°